Location: Castelbiague
(43.0361°N, 0.9246°E)
Time: 12:22:16
(UTC+00:00)

Meteor 1-4 Rocket - Pass Details

Date: 23 October 2021
Orbit: 446 x 496 km, 81.2° (Epoch: 29 November)

Event Time Altitude Azimuth Distance (km) Brightness Sun altitude
Rises 17:23:26 0° 142° (SE) 2,471 5.9 -4.8°
Reaches altitude 10° 17:26:47 10° 106° (ESE) 1,593 4.6 -5.4°
Maximum altitude 17:27:54 11° 88° (E) 1,516 4.4 -5.6°
Drops below altitude 10° 17:29:01 10° 69° (ENE) 1,592 4.5 -5.8°
Sets 17:32:21 0° 34° (NNE) 2,464 5.7 -6.4°
